TimeCST,TemperatureF,Dew PointF,Humidity,Sea Level PressureIn,VisibilityMPH,Wind Direction,Wind SpeedMPH,Gust SpeedMPH,PrecipitationIn,Events,Conditions,WindDirDegrees,DateUTC
12:53 AM,34.0,30.0,85,30.40,10.0,Calm,Calm,-,N/A,,Clear,0,2012-11-18 06:53:00
1:53 AM,30.9,28.0,89,30.40,10.0,East,3.5,-,N/A,,Clear,80,2012-11-18 07:53:00
2:53 AM,32.0,28.0,85,30.39,10.0,Calm,Calm,-,N/A,,Clear,0,2012-11-18 08:53:00
3:53 AM,28.9,27.0,92,30.39,6.0,West,3.5,-,N/A,,Clear,280,2012-11-18 09:53:00
4:53 AM,30.0,28.0,92,30.41,8.0,Calm,Calm,-,N/A,,Clear,0,2012-11-18 10:53:00
5:53 AM,28.4,26.6,93,30.40,9.0,Calm,Calm,-,N/A,,Clear,0,2012-11-18 11:53:00
6:53 AM,30.0,27.0,88,30.40,7.0,Calm,Calm,-,N/A,,Clear,0,2012-11-18 12:53:00
7:53 AM,33.1,30.9,92,30.42,4.0,Calm,Calm,-,N/A,,Clear,0,2012-11-18 13:53:00
8:53 AM,42.1,36.0,79,30.41,9.0,Calm,Calm,-,N/A,,Clear,0,2012-11-18 14:53:00
9:53 AM,48.0,39.0,71,30.43,10.0,Calm,Calm,-,N/A,,Clear,0,2012-11-18 15:53:00
10:53 AM,55.0,37.9,53,30.42,10.0,SE,5.8,-,N/A,,Clear,130,2012-11-18 16:53:00
11:53 AM,57.9,37.9,47,30.38,10.0,Variable,3.5,-,N/A,,Clear,0,2012-11-18 17:53:00
12:53 PM,60.1,36.0,41,30.36,10.0,SSE,4.6,-,N/A,,Clear,150,2012-11-18 18:53:00
1:53 PM,61.0,35.1,38,30.34,10.0,South,6.9,-,N/A,,Clear,190,2012-11-18 19:53:00
2:53 PM,61.0,33.1,35,30.33,10.0,South,3.5,-,N/A,,Clear,180,2012-11-18 20:53:00
3:53 PM,59.0,37.0,44,30.33,10.0,SSW,4.6,-,N/A,,Clear,200,2012-11-18 21:53:00
4:53 PM,51.1,36.0,56,30.33,10.0,South,3.5,-,N/A,,Clear,190,2012-11-18 22:53:00
5:53 PM,44.1,35.1,71,30.33,10.0,SSE,3.5,-,N/A,,Clear,160,2012-11-18 23:53:00
6:53 PM,42.1,36.0,79,30.35,10.0,Calm,Calm,-,N/A,,Clear,0,2012-11-19 00:53:00
7:53 PM,39.9,35.1,83,30.35,10.0,ESE,3.5,-,N/A,,Clear,120,2012-11-19 01:53:00
8:53 PM,39.9,33.1,77,30.35,10.0,East,5.8,-,N/A,,Clear,100,2012-11-19 02:53:00
9:53 PM,37.0,33.1,86,30.34,10.0,ESE,4.6,-,N/A,,Clear,110,2012-11-19 03:53:00
10:53 PM,37.9,34.0,86,30.33,8.0,East,3.5,-,N/A,,Clear,90,2012-11-19 04:53:00
11:53 PM,37.0,34.0,89,30.34,9.0,Calm,Calm,-,N/A,,Clear,0,2012-11-19 05:53:00